ECHOSTAR 16

Last updated on Thu Oct 30 2025 00:02:49 GMT+0000 (Coordinated Universal Time)

1 39008U 12065A 25302.45885764 -.00000272 00000+0 00000+0 0 9993 2 39008 0.0173 227.2960 0002122 353.5334 280.9398 1.00271640 47320
UTC large
Height (km)
Speed (km/s)
/
Latitude / Longitude
Inclination (degrees)
Orbital Period (minutes)
Azimuth
Elevation
Range (km)
Doppler Factor

Next 0 passes for location: London (51.5072 / 0.1276)

Sorry there are no passes over London.